Time,TemperatureF,DewpointF,PressureIn,WindDirection,WindDirectionDegrees,WindSpeedMPH,WindSpeedGustMPH,Humidity,HourlyPrecipIn,Conditions,Clouds,dailyrainin,SoftwareType,DateUTC
2013-04-17 00:00:00,48.4,45.3,29.90,South,180,0.0,0.0,89,0.00,,,0.00,WUHU21623XXSP,2013-04-17 05:00:00,
2013-04-17 00:05:00,48.6,45.5,29.89,SE,135,0.0,0.0,89,0.00,,,0.00,WUHU21623XXSP,2013-04-17 05:05:00,
2013-04-17 00:10:00,48.6,45.5,29.89,SSE,157,0.0,0.0,89,0.00,,,0.00,WUHU21623XXSP,2013-04-17 05:10:00,
2013-04-17 00:15:00,48.7,45.7,29.89,SE,135,0.0,0.0,89,0.00,,,0.00,WUHU21623XXSP,2013-04-17 05:15:00,
2013-04-17 00:20:00,48.9,46.1,29.89,SE,135,0.0,0.0,90,0.00,,,0.00,WUHU21623XXSP,2013-04-17 05:20:00,
2013-04-17 00:25:00,49.1,46.3,29.89,SSE,157,0.0,0.0,90,0.00,,,0.00,WUHU21623XXSP,2013-04-17 05:25:00,
2013-04-17 00:30:00,49.1,46.3,29.89,SE,135,0.0,3.1,90,0.00,,,0.00,WUHU21623XXSP,2013-04-17 05:30:00,
2013-04-17 00:35:00,49.1,46.3,29.89,SE,135,0.0,3.1,90,0.00,,,0.00,WUHU21623XXSP,2013-04-17 05:35:00,
2013-04-17 00:40:00,48.9,46.1,29.89,SE,135,0.0,0.0,90,0.00,,,0.00,WUHU21623XXSP,2013-04-17 05:40:00,
2013-04-17 00:45:00,48.9,46.1,29.89,SE,135,0.0,0.0,90,0.00,,,0.00,WUHU21623XXSP,2013-04-17 05:45:00,
2013-04-17 00:50:00,48.9,46.1,29.89,SE,135,0.0,0.0,90,0.00,,,0.00,WUHU21623XXSP,2013-04-17 05:50:00,
2013-04-17 00:55:00,48.9,46.1,29.90,SE,135,0.0,0.0,90,0.00,,,0.00,WUHU21623XXSP,2013-04-17 05:55:00,
2013-04-17 01:00:00,48.9,46.1,29.90,SE,135,0.0,0.0,90,0.00,,,0.00,WUHU21623XXSP,2013-04-17 06:00:00,
2013-04-17 01:05:00,49.3,46.5,29.90,SE,135,0.0,0.0,90,0.00,,,0.00,WUHU21623XXSP,2013-04-17 06:05:00,
2013-04-17 01:10:00,49.6,46.8,29.90,SE,135,0.0,0.0,90,0.00,,,0.00,WUHU21623XXSP,2013-04-17 06:10:00,
2013-04-17 01:15:00,49.8,47.0,29.90,SE,135,0.0,0.0,90,0.00,,,0.00,WUHU21623XXSP,2013-04-17 06:15:00,
2013-04-17 01:20:00,49.8,47.0,29.90,SE,135,0.0,0.0,90,0.00,,,0.00,WUHU21623XXSP,2013-04-17 06:20:00,
2013-04-17 01:25:00,49.6,46.8,29.90,SE,135,0.0,0.0,90,0.00,,,0.00,WUHU21623XXSP,2013-04-17 06:25:00,
2013-04-17 01:30:00,49.6,46.8,29.90,SE,135,0.0,0.0,90,0.00,,,0.00,WUHU21623XXSP,2013-04-17 06:30:00,
2013-04-17 01:35:00,49.5,46.5,29.89,SE,135,0.0,0.0,90,0.00,,,0.00,WUHU21623XXSP,2013-04-17 06:35:00,
2013-04-17 01:40:00,49.6,46.8,29.90,SSE,157,0.0,0.0,90,0.00,,,0.00,WUHU21623XXSP,2013-04-17 06:40:00,
2013-04-17 01:45:00,49.8,47.0,29.90,SSE,157,0.0,0.0,90,0.00,,,0.00,WUHU21623XXSP,2013-04-17 06:45:00,
2013-04-17 01:50:00,49.8,47.0,29.90,SSE,157,0.0,0.0,90,0.00,,,0.00,WUHU21623XXSP,2013-04-17 06:50:00,
2013-04-17 01:55:00,49.8,47.0,29.90,SSE,157,0.0,0.0,90,0.00,,,0.00,WUHU21623XXSP,2013-04-17 06:55:00,
2013-04-17 02:00:00,49.8,47.0,29.89,SSE,157,0.0,0.0,90,0.00,,,0.00,WUHU21623XXSP,2013-04-17 07:00:00,
2013-04-17 02:06:00,49.8,47.0,29.89,SSE,157,0.0,0.0,90,0.00,,,0.00,WUHU21623XXSP,2013-04-17 07:06:00,
2013-04-17 02:11:00,49.8,47.0,29.89,SSE,157,0.0,0.0,90,0.00,,,0.00,WUHU21623XXSP,2013-04-17 07:11:00,
2013-04-17 02:16:00,49.6,46.8,29.89,SSE,157,0.0,0.0,90,0.00,,,0.00,WUHU21623XXSP,2013-04-17 07:16:00,
2013-04-17 02:22:00,49.8,47.0,29.89,SSE,157,0.0,0.0,90,0.00,,,0.00,WUHU21623XXSP,2013-04-17 07:22:00,
2013-04-17 02:27:00,50.2,47.3,29.89,SSE,157,0.0,0.0,90,0.00,,,0.00,WUHU21623XXSP,2013-04-17 07:27:00,
2013-04-17 02:32:00,49.8,47.0,29.89,SSE,157,0.0,0.0,90,0.00,,,0.00,WUHU21623XXSP,2013-04-17 07:32:00,
2013-04-17 02:37:00,49.8,47.0,29.88,SSE,157,0.0,0.0,90,0.00,,,0.00,WUHU21623XXSP,2013-04-17 07:37:00,
2013-04-17 02:42:00,49.8,47.0,29.88,SSE,157,0.0,0.0,90,0.00,,,0.00,WUHU21623XXSP,2013-04-17 07:42:00,
2013-04-17 02:47:00,49.8,47.0,29.88,SSE,157,0.0,0.0,90,0.00,,,0.00,WUHU21623XXSP,2013-04-17 07:47:00,
2013-04-17 02:52:00,49.8,47.0,29.88,SSE,157,0.0,0.0,90,0.00,,,0.00,WUHU21623XXSP,2013-04-17 07:52:00,
2013-04-17 02:57:00,49.8,47.2,29.88,SSE,157,0.0,0.0,91,0.00,,,0.00,WUHU21623XXSP,2013-04-17 07:57:00,
2013-04-17 03:02:00,49.8,47.2,29.88,SSE,157,0.0,0.0,91,0.00,,,0.00,WUHU21623XXSP,2013-04-17 08:02:00,
2013-04-17 03:07:00,49.8,47.2,29.88,SSE,157,0.0,0.0,91,0.00,,,0.00,WUHU21623XXSP,2013-04-17 08:07:00,
2013-04-17 03:12:00,49.6,47.1,29.87,SSE,157,0.0,0.0,91,0.00,,,0.00,WUHU21623XXSP,2013-04-17 08:12:00,
2013-04-17 03:17:00,49.8,47.2,29.88,SSE,157,0.0,0.0,91,0.00,,,0.00,WUHU21623XXSP,2013-04-17 08:17:00,
2013-04-17 03:22:00,49.8,47.2,29.88,SSE,157,0.0,0.0,91,0.00,,,0.00,WUHU21623XXSP,2013-04-17 08:22:00,
2013-04-17 03:27:00,49.8,47.2,29.88,SSE,157,0.0,0.0,91,0.00,,,0.00,WUHU21623XXSP,2013-04-17 08:27:00,
2013-04-17 03:32:00,49.8,47.2,29.88,SE,135,0.0,0.0,91,0.00,,,0.00,WUHU21623XXSP,2013-04-17 08:32:00,
2013-04-17 03:37:00,49.8,47.2,29.87,SE,135,0.0,0.0,91,0.00,,,0.00,WUHU21623XXSP,2013-04-17 08:37:00,
2013-04-17 03:42:00,49.8,47.2,29.87,SSE,157,0.0,0.0,91,0.00,,,0.00,WUHU21623XXSP,2013-04-17 08:42:00,
2013-04-17 03:47:00,50.2,47.6,29.88,SE,135,0.0,0.0,91,0.00,,,0.00,WUHU21623XXSP,2013-04-17 08:47:00,
2013-04-17 03:52:00,50.2,47.9,29.88,SE,135,0.0,0.0,92,0.00,,,0.00,WUHU21623XXSP,2013-04-17 08:52:00,
2013-04-17 03:57:00,50.5,48.2,29.88,SE,135,0.0,0.0,92,0.00,,,0.00,WUHU21623XXSP,2013-04-17 08:57:00,
2013-04-17 04:02:00,50.7,48.4,29.87,SE,135,0.0,0.0,92,0.00,,,0.00,WUHU21623XXSP,2013-04-17 09:02:00,
2013-04-17 04:07:00,50.7,48.4,29.87,SE,135,0.0,0.0,92,0.00,,,0.00,WUHU21623XXSP,2013-04-17 09:07:00,
2013-04-17 04:12:00,50.7,48.4,29.87,SE,135,0.0,0.0,92,0.00,,,0.00,WUHU21623XXSP,2013-04-17 09:12:00,
2013-04-17 04:17:00,50.7,48.4,29.87,SE,135,0.0,0.0,92,0.00,,,0.00,WUHU21623XXSP,2013-04-17 09:17:00,
2013-04-17 04:22:00,50.9,48.6,29.87,SE,135,0.0,0.0,92,0.00,,,0.00,WUHU21623XXSP,2013-04-17 09:22:00,
2013-04-17 04:27:00,50.9,48.6,29.86,SE,135,0.0,0.0,92,0.00,,,0.00,WUHU21623XXSP,2013-04-17 09:27:00,
2013-04-17 04:32:00,51.1,48.8,29.87,SE,135,0.0,0.0,92,0.00,,,0.00,WUHU21623XXSP,2013-04-17 09:32:00,
2013-04-17 04:37:00,51.3,49.0,29.87,SE,135,0.0,0.0,92,0.00,,,0.00,WUHU21623XXSP,2013-04-17 09:37:00,
2013-04-17 04:42:00,51.4,49.1,29.86,SE,135,0.0,0.0,92,0.00,,,0.00,WUHU21623XXSP,2013-04-17 09:42:00,
2013-04-17 04:47:00,51.4,49.1,29.86,SE,135,0.0,0.0,92,0.00,,,0.00,WUHU21623XXSP,2013-04-17 09:47:00,
2013-04-17 04:52:00,51.4,49.1,29.86,SE,135,0.0,0.0,92,0.00,,,0.00,WUHU21623XXSP,2013-04-17 09:52:00,
2013-04-17 04:57:00,51.6,49.3,29.86,SE,135,0.0,0.0,92,0.00,,,0.00,WUHU21623XXSP,2013-04-17 09:57:00,
2013-04-17 05:02:00,51.6,49.3,29.86,SE,135,0.0,0.0,92,0.00,,,0.00,WUHU21623XXSP,2013-04-17 10:02:00,
2013-04-17 05:07:00,51.6,49.6,29.85,SSE,157,0.0,0.0,93,0.00,,,0.00,WUHU21623XXSP,2013-04-17 10:07:00,
2013-04-17 05:12:00,51.6,49.6,29.85,SSE,157,0.0,0.0,93,0.00,,,0.00,WUHU21623XXSP,2013-04-17 10:12:00,
2013-04-17 05:17:00,51.6,49.6,29.85,SSE,157,0.0,0.0,93,0.00,,,0.00,WUHU21623XXSP,2013-04-17 10:17:00,
2013-04-17 05:22:00,51.6,49.6,29.85,SSE,157,0.0,0.0,93,0.00,,,0.00,WUHU21623XXSP,2013-04-17 10:22:00,
2013-04-17 05:27:00,51.6,49.6,29.85,SSE,157,0.0,0.0,93,0.00,,,0.00,WUHU21623XXSP,2013-04-17 10:27:00,
2013-04-17 05:32:00,51.8,49.8,29.85,SSE,157,0.0,0.0,93,0.00,,,0.00,WUHU21623XXSP,2013-04-17 10:32:00,
2013-04-17 05:37:00,51.8,49.8,29.85,SSE,157,0.0,0.0,93,0.00,,,0.00,WUHU21623XXSP,2013-04-17 10:37:00,
2013-04-17 05:42:00,51.8,49.8,29.85,SSE,157,0.0,0.0,93,0.00,,,0.00,WUHU21623XXSP,2013-04-17 10:42:00,
2013-04-17 05:47:00,51.8,49.8,29.84,SSE,157,0.0,0.0,93,0.00,,,0.00,WUHU21623XXSP,2013-04-17 10:47:00,
2013-04-17 05:52:00,52.0,50.0,29.84,SSE,157,0.0,0.0,93,0.00,,,0.00,WUHU21623XXSP,2013-04-17 10:52:00,
2013-04-17 05:57:00,52.0,50.0,29.84,SSE,157,0.0,0.0,93,0.00,,,0.00,WUHU21623XXSP,2013-04-17 10:57:00,
2013-04-17 06:02:00,52.0,50.0,29.84,SSE,157,0.0,0.0,93,0.00,,,0.00,WUHU21623XXSP,2013-04-17 11:02:00,
2013-04-17 06:07:00,52.2,50.1,29.84,South,180,0.0,0.0,93,0.00,,,0.00,WUHU21623XXSP,2013-04-17 11:07:00,
2013-04-17 06:12:00,52.3,50.3,29.84,South,180,0.0,0.0,93,0.00,,,0.00,WUHU21623XXSP,2013-04-17 11:12:00,
2013-04-17 06:17:00,52.5,50.5,29.85,South,180,0.0,0.0,93,0.00,,,0.00,WUHU21623XXSP,2013-04-17 11:17:00,
2013-04-17 06:22:00,52.5,50.5,29.84,South,180,0.0,0.0,93,0.00,,,0.00,WUHU21623XXSP,2013-04-17 11:22:00,
2013-04-17 06:27:00,52.7,50.5,29.84,SSW,202,0.0,0.0,93,0.00,,,0.00,WUHU21623XXSP,2013-04-17 11:27:00,
2013-04-17 06:32:00,52.9,50.9,29.84,SSW,202,0.0,0.0,93,0.00,,,0.00,WUHU21623XXSP,2013-04-17 11:32:00,
2013-04-17 06:37:00,53.2,51.2,29.84,SSW,202,0.0,0.0,93,0.00,,,0.00,WUHU21623XXSP,2013-04-17 11:37:00,
2013-04-17 06:42:00,53.8,51.8,29.84,South,180,0.0,0.0,93,0.00,,,0.00,WUHU21623XXSP,2013-04-17 11:42:00,
2013-04-17 06:47:00,54.1,52.1,29.84,SSW,202,0.0,0.0,93,0.00,,,0.00,WUHU21623XXSP,2013-04-17 11:47:00,
2013-04-17 06:52:00,55.0,53.0,29.85,SSW,202,0.0,0.0,93,0.00,,,0.00,WUHU21623XXSP,2013-04-17 11:52:00,
2013-04-17 06:57:00,55.6,53.6,29.85,SSW,202,0.0,0.0,93,0.00,,,0.00,WUHU21623XXSP,2013-04-17 11:57:00,
2013-04-17 07:02:00,56.1,54.1,29.84,SSW,202,0.0,0.0,93,0.00,,,0.00,WUHU21623XXSP,2013-04-17 12:02:00,
2013-04-17 07:07:00,56.8,55.1,29.85,South,180,0.0,0.0,94,0.00,,,0.00,WUHU21623XXSP,2013-04-17 12:07:00,
2013-04-17 07:12:00,57.9,56.0,29.84,SSW,202,0.0,0.0,94,0.00,,,0.00,WUHU21623XXSP,2013-04-17 12:12:00,
2013-04-17 07:17:00,58.6,56.9,29.85,SSW,202,0.0,0.0,94,0.00,,,0.00,WUHU21623XXSP,2013-04-17 12:17:00,
2013-04-17 07:22:00,58.8,57.1,29.85,SSW,202,0.0,0.0,94,0.00,,,0.00,WUHU21623XXSP,2013-04-17 12:22:00,
2013-04-17 07:27:00,59.5,57.8,29.85,SSW,202,0.0,0.0,94,0.00,,,0.00,WUHU21623XXSP,2013-04-17 12:27:00,
2013-04-17 07:32:00,60.1,58.4,29.85,SSW,202,0.0,0.0,94,0.00,,,0.00,WUHU21623XXSP,2013-04-17 12:32:00,
2013-04-17 07:37:00,60.6,58.6,29.85,SSW,202,0.0,2.5,93,0.00,,,0.00,WUHU21623XXSP,2013-04-17 12:37:00,
2013-04-17 07:42:00,61.2,59.1,29.85,South,180,0.0,4.3,93,0.00,,,0.00,WUHU21623XXSP,2013-04-17 12:42:00,
2013-04-17 07:47:00,61.9,60.2,29.85,SW,225,0.0,4.3,94,0.00,,,0.00,WUHU21623XXSP,2013-04-17 12:47:00,
2013-04-17 07:52:00,62.8,61.1,29.85,SSW,202,0.0,0.0,94,0.00,,,0.00,WUHU21623XXSP,2013-04-17 12:52:00,
2013-04-17 07:57:00,63.3,61.6,29.85,SW,225,0.0,4.9,94,0.00,,,0.00,WUHU21623XXSP,2013-04-17 12:57:00,
2013-04-17 08:02:00,63.7,62.0,29.85,SSW,202,0.0,4.9,94,0.00,,,0.00,WUHU21623XXSP,2013-04-17 13:02:00,
2013-04-17 08:07:00,64.2,62.5,29.85,SSW,202,0.0,1.8,94,0.00,,,0.00,WUHU21623XXSP,2013-04-17 13:07:00,
2013-04-17 08:12:00,64.6,62.8,29.85,South,180,3.4,3.4,94,0.00,,,0.00,WUHU21623XXSP,2013-04-17 13:12:00,
2013-04-17 08:17:00,64.8,63.0,29.85,SW,225,2.7,5.1,94,0.00,,,0.00,WUHU21623XXSP,2013-04-17 13:17:00,
2013-04-17 08:22:00,66.7,64.6,29.85,SSW,202,0.0,5.8,93,0.00,,,0.00,WUHU21623XXSP,2013-04-17 13:22:00,
2013-04-17 08:27:00,67.5,65.0,29.85,SW,225,3.4,5.8,92,0.00,,,0.00,WUHU21623XXSP,2013-04-17 13:27:00,
2013-04-17 08:32:00,67.3,64.5,29.85,SW,225,2.2,6.5,91,0.00,,,0.00,WUHU21623XXSP,2013-04-17 13:32:00,
2013-04-17 08:37:00,67.1,64.0,29.85,South,180,0.0,7.4,90,0.00,,,0.00,WUHU21623XXSP,2013-04-17 13:37:00,
2013-04-17 08:42:00,67.5,64.1,29.85,South,180,0.0,7.4,89,0.00,,,0.00,WUHU21623XXSP,2013-04-17 13:42:00,
2013-04-17 08:47:00,68.7,64.7,29.84,South,180,1.8,8.5,87,0.00,,,0.00,WUHU21623XXSP,2013-04-17 13:47:00,
2013-04-17 08:52:00,69.4,64.8,29.84,SW,225,3.1,8.5,86,0.00,,,0.00,WUHU21623XXSP,2013-04-17 13:52:00,
2013-04-17 08:57:00,70.2,65.4,29.83,SSW,202,0.0,5.1,85,0.00,,,0.00,WUHU21623XXSP,2013-04-17 13:57:00,
2013-04-17 09:02:00,70.7,65.6,29.83,SW,225,0.0,6.0,84,0.00,,,0.00,WUHU21623XXSP,2013-04-17 14:02:00,
2013-04-17 09:07:00,71.2,65.8,29.83,SW,225,6.5,7.6,83,0.00,,,0.00,WUHU21623XXSP,2013-04-17 14:07:00,
2013-04-17 09:12:00,71.4,65.6,29.83,SW,225,0.0,7.6,82,0.00,,,0.00,WUHU21623XXSP,2013-04-17 14:12:00,
2013-04-17 09:17:00,71.8,65.6,29.83,SW,225,2.5,7.6,81,0.00,,,0.00,WUHU21623XXSP,2013-04-17 14:17:00,
2013-04-17 09:22:00,72.3,66.2,29.83,SW,225,0.0,7.6,81,0.00,,,0.00,WUHU21623XXSP,2013-04-17 14:22:00,
2013-04-17 09:27:00,74.1,66.9,29.83,South,180,0.0,8.1,78,0.00,,,0.00,WUHU21623XXSP,2013-04-17 14:27:00,
2013-04-17 09:32:00,75.0,67.0,29.83,WSW,247,3.1,8.1,76,0.00,,,0.00,WUHU21623XXSP,2013-04-17 14:32:00,
2013-04-17 09:37:00,75.4,66.9,29.83,South,180,6.5,6.5,75,0.00,,,0.00,WUHU21623XXSP,2013-04-17 14:37:00,
2013-04-17 09:42:00,75.9,67.0,29.83,WSW,247,0.0,6.5,74,0.00,,,0.00,WUHU21623XXSP,2013-04-17 14:42:00,
2013-04-17 09:47:00,76.6,67.3,29.82,SSW,202,0.0,6.3,73,0.00,,,0.00,WUHU21623XXSP,2013-04-17 14:47:00,
2013-04-17 09:52:00,77.4,67.6,29.82,SW,225,0.0,6.3,72,0.00,,,0.00,WUHU21623XXSP,2013-04-17 14:52:00,
2013-04-17 09:57:00,77.7,67.2,29.82,WSW,247,0.0,4.7,70,0.00,,,0.00,WUHU21623XXSP,2013-04-17 14:57:00,
2013-04-17 10:02:00,79.0,67.5,29.82,WSW,247,0.0,6.5,68,0.00,,,0.00,WUHU21623XXSP,2013-04-17 15:02:00,
2013-04-17 10:07:00,79.3,67.4,29.83,WSW,247,2.0,6.5,67,0.00,,,0.00,WUHU21623XXSP,2013-04-17 15:07:00,
2013-04-17 10:12:00,79.2,67.2,29.82,SW,225,2.7,5.4,67,0.00,,,0.00,WUHU21623XXSP,2013-04-17 15:12:00,
2013-04-17 10:17:00,78.6,67.1,29.82,SSW,202,0.0,6.5,68,0.00,,,0.00,WUHU21623XXSP,2013-04-17 15:17:00,
2013-04-17 10:22:00,78.6,67.1,29.82,South,180,0.0,8.5,68,0.00,,,0.00,WUHU21623XXSP,2013-04-17 15:22:00,
2013-04-17 10:27:00,78.8,66.9,29.82,SSW,202,0.0,9.4,67,0.00,,,0.00,WUHU21623XXSP,2013-04-17 15:27:00,
2013-04-17 10:32:00,79.3,67.4,29.82,SSW,202,0.0,9.4,67,0.00,,,0.00,WUHU21623XXSP,2013-04-17 15:32:00,
2013-04-17 10:37:00,79.2,67.2,29.82,West,270,3.4,9.2,67,0.00,,,0.00,WUHU21623XXSP,2013-04-17 15:37:00,
2013-04-17 10:42:00,79.3,67.4,29.82,West,270,4.7,6.7,67,0.00,,,0.00,WUHU21623XXSP,2013-04-17 15:42:00,
2013-04-17 10:47:00,79.3,67.0,29.82,SW,225,0.0,6.7,66,0.00,,,0.00,WUHU21623XXSP,2013-04-17 15:47:00,
2013-04-17 10:52:00,79.0,66.6,29.82,SSW,202,0.2,5.1,66,0.00,,,0.00,WUHU21623XXSP,2013-04-17 15:52:00,
2013-04-17 10:57:00,78.6,66.7,29.82,South,180,0.0,7.8,67,0.00,,,0.00,WUHU21623XXSP,2013-04-17 15:57:00,
2013-04-17 11:02:00,78.4,66.5,29.82,WSW,247,0.0,7.8,67,0.00,,,0.00,WUHU21623XXSP,2013-04-17 16:02:00,
2013-04-17 11:07:00,78.6,66.7,29.82,WSW,247,0.0,5.4,67,0.00,,,0.00,WUHU21623XXSP,2013-04-17 16:07:00,
2013-04-17 11:12:00,78.3,66.4,29.81,SSW,202,3.4,9.2,67,0.00,,,0.00,WUHU21623XXSP,2013-04-17 16:12:00,
2013-04-17 11:17:00,77.2,66.3,29.82,SW,225,3.1,9.2,69,0.00,,,0.00,WUHU21623XXSP,2013-04-17 16:17:00,
2013-04-17 11:22:00,76.3,65.8,29.81,SW,225,3.6,7.2,70,0.00,,,0.00,WUHU21623XXSP,2013-04-17 16:22:00,
2013-04-17 11:27:00,76.8,65.9,29.81,SW,225,3.1,7.2,69,0.00,,,0.00,WUHU21623XXSP,2013-04-17 16:27:00,
2013-04-17 11:32:00,77.5,66.6,29.81,WSW,247,0.0,7.8,69,0.00,,,0.00,WUHU21623XXSP,2013-04-17 16:32:00,
2013-04-17 11:37:00,77.7,66.8,29.80,SW,225,1.6,8.1,69,0.00,,,0.00,WUHU21623XXSP,2013-04-17 16:37:00,
2013-04-17 11:42:00,79.2,67.2,29.81,SW,225,1.6,8.1,67,0.00,,,0.00,WUHU21623XXSP,2013-04-17 16:42:00,
2013-04-17 11:47:00,80.1,67.7,29.80,SSW,202,0.0,9.2,66,0.00,,,0.00,WUHU21623XXSP,2013-04-17 16:47:00,
2013-04-17 11:52:00,80.4,67.6,29.80,SSW,202,0.0,9.2,65,0.00,,,0.00,WUHU21623XXSP,2013-04-17 16:52:00,
2013-04-17 11:57:00,80.2,67.4,29.80,WSW,247,5.1,16.1,65,0.00,,,0.00,WUHU21623XXSP,2013-04-17 16:57:00,
2013-04-17 12:02:00,80.8,67.9,29.80,SW,225,2.5,16.1,65,0.00,,,0.00,WUHU21623XXSP,2013-04-17 17:02:00,
2013-04-17 12:07:00,80.8,67.4,29.79,SSW,202,2.9,13.9,64,0.00,,,0.00,WUHU21623XXSP,2013-04-17 17:07:00,
2013-04-17 12:12:00,81.3,67.5,29.79,SSW,202,3.6,13.9,63,0.00,,,0.00,WUHU21623XXSP,2013-04-17 17:12:00,
2013-04-17 12:17:00,82.0,68.1,29.78,SW,225,5.6,11.2,63,0.00,,,0.00,WUHU21623XXSP,2013-04-17 17:17:00,
2013-04-17 12:22:00,82.9,68.5,29.78,SSW,202,0.0,9.8,62,0.00,,,0.00,WUHU21623XXSP,2013-04-17 17:22:00,
2013-04-17 12:27:00,83.3,68.5,29.77,South,180,6.7,11.0,61,0.00,,,0.00,WUHU21623XXSP,2013-04-17 17:27:00,
2013-04-17 12:32:00,83.5,68.6,29.77,WSW,247,1.6,11.0,61,0.00,,,0.00,WUHU21623XXSP,2013-04-17 17:32:00,
2013-04-17 12:37:00,83.5,68.6,29.76,WSW,247,2.9,10.1,61,0.00,,,0.00,WUHU21623XXSP,2013-04-17 17:37:00,
2013-04-17 12:42:00,84.4,69.1,29.76,SW,225,8.1,15.4,60,0.00,,,0.00,WUHU21623XXSP,2013-04-17 17:42:00,
2013-04-17 12:47:00,84.2,68.9,29.76,SW,225,0.0,15.4,60,0.00,,,0.00,WUHU21623XXSP,2013-04-17 17:47:00,
2013-04-17 12:52:00,85.1,69.2,29.76,West,270,0.0,9.2,59,0.00,,,0.00,WUHU21623XXSP,2013-04-17 17:52:00,
2013-04-17 12:57:00,85.3,68.8,29.75,SSW,202,3.1,9.2,58,0.00,,,0.00,WUHU21623XXSP,2013-04-17 17:57:00,
2013-04-17 13:02:00,85.1,68.7,29.75,SSW,202,3.8,10.5,58,0.00,,,0.00,WUHU21623XXSP,2013-04-17 18:02:00,
2013-04-17 13:07:00,85.3,68.8,29.75,SW,225,4.7,10.5,58,0.00,,,0.00,WUHU21623XXSP,2013-04-17 18:07:00,
2013-04-17 13:12:00,84.9,68.5,29.75,South,180,0.0,10.5,58,0.00,,,0.00,WUHU21623XXSP,2013-04-17 18:12:00,
2013-04-17 13:17:00,84.6,68.7,29.75,SSW,202,7.2,12.3,59,0.00,,,0.00,WUHU21623XXSP,2013-04-17 18:17:00,
2013-04-17 13:22:00,84.7,68.3,29.75,WSW,247,4.7,12.3,58,0.00,,,0.00,WUHU21623XXSP,2013-04-17 18:22:00,
2013-04-17 13:27:00,84.9,68.5,29.75,SW,225,0.0,9.8,58,0.00,,,0.00,WUHU21623XXSP,2013-04-17 18:27:00,
2013-04-17 13:32:00,86.4,69.3,29.74,SSW,202,7.6,9.8,57,0.00,,,0.00,WUHU21623XXSP,2013-04-17 18:32:00,
2013-04-17 13:37:00,86.0,68.4,29.74,SSW,202,2.2,12.1,56,0.00,,,0.00,WUHU21623XXSP,2013-04-17 18:37:00,
2013-04-17 13:42:00,86.2,68.6,29.75,SW,225,4.7,12.1,56,0.00,,,0.00,WUHU21623XXSP,2013-04-17 18:42:00,
2013-04-17 13:47:00,85.6,68.1,29.74,SW,225,11.9,12.1,56,0.00,,,0.00,WUHU21623XXSP,2013-04-17 18:47:00,
2013-04-17 13:52:00,85.1,67.6,29.73,SW,225,11.6,12.1,56,0.00,,,0.00,WUHU21623XXSP,2013-04-17 18:52:00,
2013-04-17 13:57:00,84.9,67.5,29.73,SSW,202,3.4,11.9,56,0.00,,,0.00,WUHU21623XXSP,2013-04-17 18:57:00,
2013-04-17 14:02:00,85.6,67.6,29.73,SSW,202,13.6,13.6,55,0.00,,,0.00,WUHU21623XXSP,2013-04-17 19:02:00,
2013-04-17 14:07:00,85.8,67.7,29.73,SW,225,3.8,13.6,55,0.00,,,0.00,WUHU21623XXSP,2013-04-17 19:07:00,
2013-04-17 14:12:00,86.0,67.9,29.72,SW,225,0.0,13.6,55,0.00,,,0.00,WUHU21623XXSP,2013-04-17 19:12:00,
2013-04-17 14:17:00,87.1,68.9,29.72,SW,225,0.0,11.6,55,0.00,,,0.00,WUHU21623XXSP,2013-04-17 19:17:00,
2013-04-17 14:22:00,88.0,68.7,29.72,SSW,202,2.5,11.6,53,0.00,,,0.00,WUHU21623XXSP,2013-04-17 19:22:00,
2013-04-17 14:27:00,88.3,69.6,29.72,SSW,202,1.3,11.6,54,0.00,,,0.00,WUHU21623XXSP,2013-04-17 19:27:00,
2013-04-17 14:32:00,88.5,69.2,29.71,SW,225,9.4,9.6,53,0.00,,,0.00,WUHU21623XXSP,2013-04-17 19:32:00,
2013-04-17 14:37:00,88.5,69.2,29.71,WSW,247,0.0,10.7,53,0.00,,,0.00,WUHU21623XXSP,2013-04-17 19:37:00,
2013-04-17 14:42:00,88.0,68.7,29.71,South,180,7.2,12.5,53,0.00,,,0.00,WUHU21623XXSP,2013-04-17 19:42:00,
2013-04-17 14:47:00,86.9,68.2,29.70,SW,225,6.0,12.5,54,0.00,,,0.00,WUHU21623XXSP,2013-04-17 19:47:00,
2013-04-17 14:52:00,86.9,68.2,29.70,SSW,202,0.0,11.9,54,0.00,,,0.00,WUHU21623XXSP,2013-04-17 19:52:00,
2013-04-17 14:57:00,85.8,67.2,29.70,WSW,247,4.3,11.9,54,0.00,,,0.00,WUHU21623XXSP,2013-04-17 19:57:00,
2013-04-17 15:02:00,85.8,67.7,29.70,SW,225,2.0,11.0,55,0.00,,,0.00,WUHU21623XXSP,2013-04-17 20:02:00,
2013-04-17 15:07:00,86.5,67.9,29.70,SSW,202,7.4,11.0,54,0.00,,,0.00,WUHU21623XXSP,2013-04-17 20:07:00,
2013-04-17 15:12:00,86.7,68.1,29.70,West,270,6.5,10.7,54,0.00,,,0.00,WUHU21623XXSP,2013-04-17 20:12:00,
2013-04-17 15:17:00,85.6,67.6,29.69,SW,225,4.9,10.7,55,0.00,,,0.00,WUHU21623XXSP,2013-04-17 20:17:00,
2013-04-17 15:22:00,85.3,67.3,29.69,SW,225,1.8,11.0,55,0.00,,,0.00,WUHU21623XXSP,2013-04-17 20:22:00,
2013-04-17 15:27:00,85.8,67.7,29.69,WSW,247,6.5,11.0,55,0.00,,,0.00,WUHU21623XXSP,2013-04-17 20:27:00,
2013-04-17 15:32:00,86.4,67.7,29.68,SSE,157,6.0,8.7,54,0.00,,,0.00,WUHU21623XXSP,2013-04-17 20:32:00,
2013-04-17 15:37:00,86.0,67.4,29.68,WSW,247,8.9,11.2,54,0.00,,,0.00,WUHU21623XXSP,2013-04-17 20:37:00,
2013-04-17 15:42:00,85.8,67.2,29.67,SW,225,5.8,11.2,54,0.00,,,0.00,WUHU21623XXSP,2013-04-17 20:42:00,
2013-04-17 15:47:00,86.2,67.6,29.67,SW,225,5.4,9.4,54,0.00,,,0.00,WUHU21623XXSP,2013-04-17 20:47:00,
2013-04-17 15:52:00,85.1,66.6,29.67,South,180,10.5,15.4,54,0.00,,,0.00,WUHU21623XXSP,2013-04-17 20:52:00,
2013-04-17 15:57:00,85.3,67.3,29.67,WSW,247,0.0,15.4,55,0.00,,,0.00,WUHU21623XXSP,2013-04-17 20:57:00,
2013-04-17 16:02:00,84.9,66.4,29.67,West,270,2.7,12.8,54,0.00,,,0.00,WUHU21623XXSP,2013-04-17 21:02:00,
2013-04-17 16:07:00,84.9,66.4,29.67,WNW,292,4.5,12.5,54,0.00,,,0.00,WUHU21623XXSP,2013-04-17 21:07:00,
2013-04-17 16:12:00,84.6,66.6,29.66,SW,225,0.0,12.5,55,0.00,,,0.00,WUHU21623XXSP,2013-04-17 21:12:00,
2013-04-17 16:17:00,84.4,66.5,29.66,West,270,5.1,13.4,55,0.00,,,0.00,WUHU21623XXSP,2013-04-17 21:17:00,
2013-04-17 16:22:00,83.8,65.9,29.66,SSW,202,4.9,18.1,55,0.00,,,0.00,WUHU21623XXSP,2013-04-17 21:22:00,
2013-04-17 16:27:00,84.4,66.5,29.66,WNW,292,2.9,18.1,55,0.00,,,0.00,WUHU21623XXSP,2013-04-17 21:27:00,
2013-04-17 16:32:00,84.4,65.9,29.66,WSW,247,9.4,14.8,54,0.00,,,0.00,WUHU21623XXSP,2013-04-17 21:32:00,
2013-04-17 16:37:00,83.8,65.4,29.66,SSW,202,6.0,14.8,54,0.00,,,0.00,WUHU21623XXSP,2013-04-17 21:37:00,
2013-04-17 16:42:00,83.5,65.0,29.65,SW,225,6.7,15.0,54,0.00,,,0.00,WUHU21623XXSP,2013-04-17 21:42:00,
2013-04-17 16:47:00,83.3,65.4,29.65,South,180,6.7,15.0,55,0.00,,,0.00,WUHU21623XXSP,2013-04-17 21:47:00,
2013-04-17 16:52:00,83.3,65.4,29.65,SW,225,0.0,95.3,55,0.00,,,0.00,WUHU21623XXSP,2013-04-17 21:52:00,
2013-04-17 16:57:00,83.8,65.9,29.64,SW,225,2.5,95.3,55,0.00,,,0.00,WUHU21623XXSP,2013-04-17 21:57:00,
2013-04-17 17:02:00,83.8,65.4,29.64,SW,225,11.6,11.6,54,0.00,,,0.00,WUHU21623XXSP,2013-04-17 22:02:00,
2013-04-17 17:07:00,83.1,65.2,29.64,SW,225,2.5,11.6,55,0.00,,,0.00,WUHU21623XXSP,2013-04-17 22:07:00,
2013-04-17 17:12:00,82.2,64.8,29.64,SSW,202,0.0,11.0,56,0.00,,,0.00,WUHU21623XXSP,2013-04-17 22:12:00,
2013-04-17 17:17:00,81.5,64.2,29.64,WSW,247,4.9,11.0,56,0.00,,,0.00,WUHU21623XXSP,2013-04-17 22:17:00,
2013-04-17 17:22:00,81.1,64.4,29.64,SW,225,2.5,10.5,57,0.00,,,0.00,WUHU21623XXSP,2013-04-17 22:22:00,
2013-04-17 17:27:00,80.8,64.1,29.64,SSW,202,0.0,11.0,57,0.00,,,0.00,WUHU21623XXSP,2013-04-17 22:27:00,
2013-04-17 17:32:00,80.4,63.8,29.64,WSW,247,0.0,11.2,57,0.00,,,0.00,WUHU21623XXSP,2013-04-17 22:32:00,
2013-04-17 17:37:00,80.1,64.0,29.64,SSW,202,6.3,11.2,58,0.00,,,0.00,WUHU21623XXSP,2013-04-17 22:37:00,
2013-04-17 17:42:00,79.9,63.8,29.63,SW,225,0.0,8.3,58,0.00,,,0.00,WUHU21623XXSP,2013-04-17 22:42:00,
2013-04-17 17:47:00,79.9,63.8,29.63,SW,225,0.0,8.7,58,0.00,,,0.00,WUHU21623XXSP,2013-04-17 22:47:00,
2013-04-17 17:52:00,80.2,64.1,29.63,SW,225,7.4,8.7,58,0.00,,,0.00,WUHU21623XXSP,2013-04-17 22:52:00,
2013-04-17 17:57:00,80.8,64.6,29.63,SW,225,5.1,10.3,58,0.00,,,0.00,WUHU21623XXSP,2013-04-17 22:57:00,
2013-04-17 18:02:00,81.3,64.6,29.63,South,180,0.0,11.0,57,0.00,,,0.00,WUHU21623XXSP,2013-04-17 23:02:00,
2013-04-17 18:07:00,81.5,64.7,29.62,WSW,247,5.8,11.0,57,0.00,,,0.00,WUHU21623XXSP,2013-04-17 23:07:00,
2013-04-17 18:12:00,81.5,64.7,29.62,SW,225,3.4,10.7,57,0.00,,,0.00,WUHU21623XXSP,2013-04-17 23:12:00,
2013-04-17 18:17:00,80.8,64.1,29.62,WSW,247,6.7,8.9,57,0.00,,,0.00,WUHU21623XXSP,2013-04-17 23:17:00,
2013-04-17 18:22:00,80.4,64.3,29.63,SW,225,0.0,8.5,58,0.00,,,0.00,WUHU21623XXSP,2013-04-17 23:22:00,
2013-04-17 18:27:00,80.4,64.3,29.62,SSW,202,0.0,8.5,58,0.00,,,0.00,WUHU21623XXSP,2013-04-17 23:27:00,
2013-04-17 18:32:00,80.2,64.1,29.62,SSW,202,0.0,8.1,58,0.00,,,0.00,WUHU21623XXSP,2013-04-17 23:32:00,
2013-04-17 18:37:00,79.7,64.1,29.62,SSW,202,4.5,13.0,59,0.00,,,0.00,WUHU21623XXSP,2013-04-17 23:37:00,
2013-04-17 18:42:00,79.3,63.8,29.62,WSW,247,6.5,13.0,59,0.00,,,0.00,WUHU21623XXSP,2013-04-17 23:42:00,
2013-04-17 18:47:00,79.0,64.0,29.62,WSW,247,8.7,12.1,60,0.00,,,0.00,WUHU21623XXSP,2013-04-17 23:47:00,
2013-04-17 18:52:00,78.6,63.7,29.62,SW,225,7.8,12.1,60,0.00,,,0.00,WUHU21623XXSP,2013-04-17 23:52:00,
2013-04-17 18:57:00,78.4,63.9,29.62,SSW,202,3.6,9.6,61,0.00,,,0.00,WUHU21623XXSP,2013-04-17 23:57:00,
2013-04-17 19:02:00,78.1,63.6,29.61,SW,225,3.8,10.3,61,0.00,,,0.00,WUHU21623XXSP,2013-04-18 00:02:00,
2013-04-17 19:07:00,77.7,63.7,29.61,WSW,247,6.0,10.3,62,0.00,,,0.00,WUHU21623XXSP,2013-04-18 00:07:00,
2013-04-17 19:12:00,77.5,63.5,29.61,SSW,202,3.6,11.0,62,0.00,,,0.00,WUHU21623XXSP,2013-04-18 00:12:00,
2013-04-17 19:17:00,77.4,63.3,29.61,South,180,6.3,11.0,62,0.00,,,0.00,WUHU21623XXSP,2013-04-18 00:17:00,
2013-04-17 19:22:00,77.2,63.1,29.61,South,180,0.0,13.6,62,0.00,,,0.00,WUHU21623XXSP,2013-04-18 00:22:00,
2013-04-17 19:27:00,76.8,62.8,29.61,SSW,202,0.0,13.6,62,0.00,,,0.00,WUHU21623XXSP,2013-04-18 00:27:00,
2013-04-17 19:32:00,76.6,63.1,29.60,WSW,247,1.1,5.6,63,0.00,,,0.00,WUHU21623XXSP,2013-04-18 00:32:00,
2013-04-17 19:37:00,76.5,63.3,29.60,SW,225,0.0,6.7,64,0.00,,,0.00,WUHU21623XXSP,2013-04-18 00:37:00,
2013-04-17 19:42:00,76.1,63.0,29.61,SSW,202,0.9,9.8,64,0.00,,,0.00,WUHU21623XXSP,2013-04-18 00:42:00,
2013-04-17 19:47:00,75.9,62.8,29.61,SW,225,0.0,9.8,64,0.00,,,0.00,WUHU21623XXSP,2013-04-18 00:47:00,
2013-04-17 19:52:00,75.7,63.1,29.61,WSW,247,0.0,8.9,65,0.00,,,0.00,WUHU21623XXSP,2013-04-18 00:52:00,
2013-04-17 19:57:00,75.6,62.9,29.61,SSW,202,0.0,6.5,65,0.00,,,0.00,WUHU21623XXSP,2013-04-18 00:57:00,
2013-04-17 20:02:00,75.4,62.8,29.60,SW,225,0.0,6.5,65,0.00,,,0.00,WUHU21623XXSP,2013-04-18 01:02:00,
2013-04-17 20:07:00,75.4,63.2,29.60,SSW,202,4.3,8.1,66,0.00,,,0.00,WUHU21623XXSP,2013-04-18 01:07:00,
2013-04-17 20:12:00,75.0,62.9,29.59,South,180,2.9,8.1,66,0.00,,,0.00,WUHU21623XXSP,2013-04-18 01:12:00,
2013-04-17 20:17:00,74.8,62.7,29.59,SW,225,3.4,6.9,66,0.00,,,0.00,WUHU21623XXSP,2013-04-18 01:17:00,
2013-04-17 20:22:00,74.8,62.7,29.59,SW,225,0.0,6.9,66,0.00,,,0.00,WUHU21623XXSP,2013-04-18 01:22:00,
2013-04-17 20:27:00,74.5,62.8,29.59,SW,225,1.3,6.5,67,0.00,,,0.00,WUHU21623XXSP,2013-04-18 01:27:00,
2013-04-17 20:32:00,74.1,62.5,29.59,SSW,202,4.3,7.6,67,0.00,,,0.00,WUHU21623XXSP,2013-04-18 01:32:00,
2013-04-17 20:37:00,74.1,62.9,29.59,SSW,202,0.0,7.8,68,0.00,,,0.00,WUHU21623XXSP,2013-04-18 01:37:00,
2013-04-17 20:42:00,73.9,62.7,29.59,SW,225,0.0,8.5,68,0.00,,,0.00,WUHU21623XXSP,2013-04-18 01:42:00,
2013-04-17 20:47:00,73.9,62.7,29.59,SSW,202,0.0,10.1,68,0.00,,,0.00,WUHU21623XXSP,2013-04-18 01:47:00,
2013-04-17 20:52:00,73.9,63.2,29.59,SSW,202,8.3,10.1,69,0.00,,,0.00,WUHU21623XXSP,2013-04-18 01:52:00,
2013-04-17 20:57:00,73.9,63.2,29.59,SSW,202,2.9,8.3,69,0.00,,,0.00,WUHU21623XXSP,2013-04-18 01:57:00,
2013-04-17 21:02:00,73.9,63.2,29.60,SW,225,6.9,8.3,69,0.00,,,0.00,WUHU21623XXSP,2013-04-18 02:02:00,
2013-04-17 21:07:00,73.9,63.2,29.60,South,180,2.9,9.8,69,0.00,,,0.00,WUHU21623XXSP,2013-04-18 02:07:00,
2013-04-17 21:12:00,73.9,63.2,29.59,WSW,247,2.7,9.8,69,0.00,,,0.00,WUHU21623XXSP,2013-04-18 02:12:00,
2013-04-17 21:17:00,73.8,63.0,29.59,West,270,6.0,8.1,69,0.00,,,0.00,WUHU21623XXSP,2013-04-18 02:17:00,
2013-04-17 21:22:00,73.8,63.0,29.60,SSW,202,6.5,11.4,69,0.00,,,0.00,WUHU21623XXSP,2013-04-18 02:22:00,
2013-04-17 21:27:00,73.6,63.3,29.60,SW,225,0.0,11.4,70,0.00,,,0.00,WUHU21623XXSP,2013-04-18 02:27:00,
2013-04-17 21:32:00,73.4,63.1,29.60,SSW,202,0.0,11.4,70,0.00,,,0.00,WUHU21623XXSP,2013-04-18 02:32:00,
2013-04-17 21:37:00,73.2,63.0,29.60,WSW,247,0.0,6.3,70,0.00,,,0.00,WUHU21623XXSP,2013-04-18 02:37:00,
2013-04-17 21:42:00,73.2,63.0,29.60,SSW,202,3.4,7.8,70,0.00,,,0.00,WUHU21623XXSP,2013-04-18 02:42:00,
2013-04-17 21:47:00,73.2,63.0,29.59,SSW,202,0.0,8.9,70,0.00,,,0.00,WUHU21623XXSP,2013-04-18 02:47:00,
2013-04-17 21:52:00,73.0,62.8,29.59,SW,225,0.0,8.9,70,0.00,,,0.00,WUHU21623XXSP,2013-04-18 02:52:00,
2013-04-17 21:57:00,73.2,63.0,29.59,SW,225,4.7,9.6,70,0.00,,,0.00,WUHU21623XXSP,2013-04-18 02:57:00,
2013-04-17 22:02:00,73.0,62.8,29.59,SW,225,3.4,9.6,70,0.00,,,0.00,WUHU21623XXSP,2013-04-18 03:02:00,
2013-04-17 22:07:00,73.0,63.2,29.59,SSW,202,0.0,10.5,71,0.00,,,0.00,WUHU21623XXSP,2013-04-18 03:07:00,
2013-04-17 22:12:00,73.0,63.2,29.59,WSW,247,0.0,10.5,71,0.00,,,0.00,WUHU21623XXSP,2013-04-18 03:12:00,
2013-04-17 22:17:00,73.0,63.2,29.58,West,270,4.7,10.1,71,0.00,,,0.00,WUHU21623XXSP,2013-04-18 03:17:00,
2013-04-17 22:22:00,72.9,63.0,29.58,SW,225,0.0,7.4,71,0.00,,,0.00,WUHU21623XXSP,2013-04-18 03:22:00,
2013-04-17 22:27:00,72.7,62.8,29.58,SSW,202,4.3,7.8,71,0.00,,,0.00,WUHU21623XXSP,2013-04-18 03:27:00,
2013-04-17 22:32:00,72.7,63.2,29.57,SW,225,0.0,7.8,72,0.00,,,0.00,WUHU21623XXSP,2013-04-18 03:32:00,
2013-04-17 22:37:00,72.5,63.0,29.57,SSW,202,0.0,6.3,72,0.00,,,0.00,WUHU21623XXSP,2013-04-18 03:37:00,
2013-04-17 22:42:00,72.3,62.8,29.57,SW,225,0.0,6.7,72,0.00,,,0.00,WUHU21623XXSP,2013-04-18 03:42:00,
2013-04-17 22:47:00,72.3,62.8,29.58,SW,225,0.0,6.7,72,0.00,,,0.00,WUHU21623XXSP,2013-04-18 03:47:00,
2013-04-17 22:52:00,72.3,63.2,29.58,West,270,1.6,10.3,73,0.00,,,0.00,WUHU21623XXSP,2013-04-18 03:52:00,
2013-04-17 22:57:00,72.3,63.2,29.58,WSW,247,3.1,10.3,73,0.00,,,0.00,WUHU21623XXSP,2013-04-18 03:57:00,
2013-04-17 23:01:00,72.5,63.4,29.59,WSW,247,0.0,10.3,73,0.00,,,0.00,WUHU21623XXSP,2013-04-18 04:01:00,
2013-04-17 23:02:00,72.5,63.4,29.58,WSW,247,4.5,9.8,73,0.00,,,0.00,WUHU21623XXSP,2013-04-18 04:02:00,
2013-04-17 23:07:00,72.5,63.4,29.59,SW,225,1.6,9.8,73,0.00,,,0.00,WUHU21623XXSP,2013-04-18 04:07:00,
2013-04-17 23:12:00,72.3,63.2,29.58,SW,225,4.3,8.1,73,0.00,,,0.00,WUHU21623XXSP,2013-04-18 04:12:00,
2013-04-17 23:17:00,72.3,63.2,29.57,SW,225,4.0,6.5,73,0.00,,,0.00,WUHU21623XXSP,2013-04-18 04:17:00,
2013-04-17 23:22:00,72.1,63.0,29.57,SW,225,6.0,6.7,73,0.00,,,0.00,WUHU21623XXSP,2013-04-18 04:22:00,
2013-04-17 23:27:00,72.1,63.0,29.57,SSE,157,0.0,8.7,73,0.00,,,0.00,WUHU21623XXSP,2013-04-18 04:27:00,
2013-04-17 23:32:00,72.1,63.0,29.56,SW,225,4.3,9.2,73,0.00,,,0.00,WUHU21623XXSP,2013-04-18 04:32:00,
2013-04-17 23:37:00,72.0,63.2,29.56,SSW,202,0.0,9.2,74,0.00,,,0.00,WUHU21623XXSP,2013-04-18 04:37:00,
2013-04-17 23:42:00,72.0,63.2,29.56,SSW,202,3.8,7.8,74,0.00,,,0.00,WUHU21623XXSP,2013-04-18 04:42:00,
2013-04-17 23:47:00,72.0,63.2,29.56,SSW,202,6.5,9.8,74,0.00,,,0.00,WUHU21623XXSP,2013-04-18 04:47:00,
2013-04-17 23:52:00,72.0,63.2,29.57,South,180,2.9,10.1,74,0.00,,,0.00,WUHU21623XXSP,2013-04-18 04:52:00,
2013-04-17 23:57:00,72.0,63.2,29.57,SSW,202,7.6,10.1,74,0.00,,,0.00,WUHU21623XXSP,2013-04-18 04:57:00,